Showing default

BLUEWALKER 3, 53807

Orbit data source: Space-Track

BLUEWALKER 3, 53807 is a payload satellite owned by AST & Science (US) in LEO that was launched on Sun, 11 Sep 2022 UTC via an FALCON 9 launch vehicle from the Air Force Eastern Test Range (AFETR). Payload-class satellites include a variety of spacecraft equipped with specific instruments for various scientific and technological missions. These include communications satellites like Starlink; space stations such as the ISS; scientific satellites like the Hubble; Earth observation satellites from companies like Planet Labs, Umbra, and HawkEye 360; GPS; miniature CubeSats for education and research; and military/defense satellites.

Loading next visibility...
Identifier
53807, 2022-111AL
Orbit
LEO
Country
Flag of USUS
Related business
Manufacturer
AST & Science
Mission
Partially operational Commercial Communications
Bus & Motor
BW3, Unknown motor
Mass
1,500 kg wet, 1,500 kg dry
Launch date (UTC)
2022-09-11 (4 years ago)
Launch vehicle
FALCON 9
Launch site
Air Force Eastern Test Range (AFETR)
Object type
Payload
Rocket body
Debris
Shape & HBR
Box + 1 Plate, 6.0 m
Radar Cross Section
1.500 m², Large (>1 m²)

Expand to show TLE details & history
Last TLE update: 2 days ago

TLE from 2 days ago
0 BLUEWALKER 3
1 53807U 22111AL  26171.29837095  .00005034  00000-0  14158-3 0  9994
2 53807  53.2300  19.3650 0006058 169.9503 190.1625 15.38306331210688
Epoch: 2026-06-20T07:09Z
TLE epoch observation values (Epoch: 2026-06-20T07:09:39.250Z)
Latitude
0.00005°
Longitude
3.43649°
Altitude
456.1 km
Speed
7.638 km/s
True Right ascension
01h 17m 27s
True Declination
0° 00' 00"
Sunlit
Object was in daylight at epoch
Visualization orbit readout
Latitude
Unknown
Longitude
Unknown
Altitude
Unknown
Speed
Unknown
Apparent Right ascension
Unknown
Apparent Declination
Unknown
Sunlit
N/A
Visualization observer readout
Local Sidereal Time
23:19:35
Azimuth
Unknown
Elevation
Unknown
Doppler factor
Unknown
Orbital elements
Apogee altitude
455.501 km
Perigee altitude
447.226 km
Semi-major axis
6,829.5 km
Eccentricity
0.00061
Inclination
53.23°
RAAN
19.365°
Arg. of periapsis
169.9503°
True anomaly
190.15026°
Mean anomaly
190.1625°
Eccentric anomaly
190.15638°
Mean motion
3.84556 °/min
Orbital period
93.61 mins
BSTAR
0.00014158
Loading maneuver chart data...
Computing Atmospheric mass density...
Loading historical data...
Loading historical data...
Loading historical data...
Loading historical data...
Loading historical data...
Loading historical data...
Loading historical data...

Documentation

Showing up to 5 results
|